sat.trackr.live / text

‹ back to catalog

STARLINK-5067

NORAD 55653 · 2023-021AB

PAYLOAD ACTIVE UNKNOWN

§ Identity

Operator
Country
US
Launch date
2023-02-17
Launch site
AFWTR
Launch vehicle
Mass (kg)
RCS (m²)

Purposes: comms

External: N2YO · Heavens-Above · Gunter

§ Orbital elements

Epoch: 2026-09-20T21:12:02.551968Z

Period
96.11 min
Inclination
69.9995°
Eccentricity
0.0002968
Mean motion
14.98327888 rev/d
Perigee alt
570.0 km
Apogee alt
574.1 km
Semi-major
6,950.2 km
B*
3.5665e-5
RAAN
52.1347°
Arg perigee
267.9324°
Mean anomaly
92.1495°
Rev number
19,803

§ Raw data

STARLINK-50671 55653U 23021AB  26263.88336287  .00000333  00000+0  35665-4 0  99932 55653  69.9995  52.1347 0002968 267.9324  92.1495 14.98327888198032

JSON: /api/v1/satellites/55653 · /tle

For live sub-satellite position, see the globe view (requires WebGL).

§ Visibility from observer

Set your observer location to see the next 7 days of passes ≥ 10°. The values pass through the URL so the page stays shareable.

No JS? Fill the form by hand. The geolocation button needs JavaScript.